Home > Weather > Le Mans > Past weeks

Flag for France Past Weather in Le Mans, Pays de la Loire, France — Yesterday and Last 2 Weeks

Now
66 °F

Overcast.


Feels Like: 66 °F
Forecast: 56 / 72 °F
Wind: 6 mph from Southwest

Location: Le Mans Airport

Current Time: Jul 29, 2016 at 6:06:17 AM

Latest Report: Jul 29, 2016 at 5:30 AM


Visibility: N/A

Pressure: 30.01 "Hg

Humidity: 83%

Dew Point: 61 °F

Location of Le MansLocation

Past Weather in Le Mans — Graph

°F

Le Mans Temperature Yesterday

Maximum temperature yesterday: 79 °F (at 4:00 PM)
Minimum temperature yesterday: 64 °F (at 2:00 AM)
Average temperature yesterday: 70 °F

High & Low Weather Summary for the Past Weeks

 TemperatureHumidityPressure
High99 °F (Jul 19, 3:30 PM)94% (Jul 14, 5:00 AM)30.39 "Hg (Jul 14, 5:00 AM)
Low45 °F (Jul 15, 5:30 AM)18% (Jul 19, 4:00 PM)29.89 "Hg (Jul 19, 6:30 PM)
Average72 °F60%30.14 "Hg
* Reported Jul 14 5:00 AM — Jul 29 5:00 AM, Le Mans, Weather by CustomWeather, © 2016

Note: Actual official high and low records may vary slightly from our data, if they occured in-between our weather recording intervals... More about our weather records

Advertising

Le Mans Weather History for the Previous 24 Hours

Scroll right to see more
 ConditionsComfort  
Time TempWeatherWind HumidityBarometerVisibility
5:00 AM
Fri, Jul 29
66 °FOvercast.6 mph83%30.01 "HgN/A
4:30 AM66 °FOvercast.5 mph83%30.01 "HgN/A
4:00 AM66 °FOvercast.8 mph83%30.01 "HgN/A
3:30 AM66 °FOvercast.6 mph83%30.01 "HgN/A
3:00 AM66 °FOvercast.9 mph83%30.04 "HgN/A
2:30 AM68 °FOvercast.7 mph78%30.04 "HgN/A
2:00 AM68 °FMostly cloudy.7 mph78%30.04 "HgN/A
1:30 AM68 °FMostly cloudy.8 mph73%30.04 "HgN/A
1:00 AM68 °FMostly cloudy.8 mph73%30.04 "HgN/A
12:30 AM68 °FOvercast.7 mph73%30.04 "HgN/A
12:00 AM68 °FPassing clouds.9 mph73%30.04 "HgN/A
11:30 PM
Thu, Jul 28
68 °FPassing clouds.6 mph73%30.04 "HgN/A
11:00 PM68 °FPassing clouds.7 mph73%30.04 "HgN/A
10:30 PM70 °FPassing clouds.8 mph69%30.04 "HgN/A
10:00 PM70 °FPassing clouds.9 mph69%30.04 "HgN/A
9:30 PM73 °FPassing clouds.9 mph61%30.04 "HgN/A
9:00 PM73 °FPassing clouds.8 mph61%30.04 "HgN/A
8:30 PM75 °FPartly sunny.8 mph57%30.04 "HgN/A
8:00 PM77 °FOvercast.9 mph51%30.04 "HgN/A
7:30 PM75 °FMore clouds than sun.8 mph54%30.04 "HgN/A
7:00 PM77 °FPassing clouds.8 mph51%30.04 "HgN/A
6:30 PM77 °FPassing clouds.9 mph51%30.04 "HgN/A
6:00 PM77 °FOvercast.8 mph51%30.04 "HgN/A
5:30 PM77 °FOvercast.9 mph47%30.04 "HgN/A
5:00 PM79 °FPartly sunny.7 mph45%30.04 "HgN/A
4:30 PM79 °FScattered clouds.10 mph45%30.04 "HgN/A
4:00 PM79 °FPartly sunny.12 mph45%30.07 "HgN/A
3:30 PM77 °FPassing clouds.8 mph47%30.07 "HgN/A
3:00 PM77 °FWarm.8 mph51%30.07 "HgN/A
2:30 PM73 °FOvercast.8 mph57%30.09 "HgN/A
2:00 PM73 °FOvercast.10 mph61%30.09 "HgN/A
1:30 PM73 °FBroken clouds.7 mph57%30.09 "HgN/A
1:00 PM72 °FPartly sunny.9 mph65%30.09 "HgN/A
12:30 PM70 °FMostly cloudy.6 mph69%30.09 "HgN/A
12:00 PM70 °FMostly cloudy.8 mph69%30.09 "HgN/A
11:30 AM70 °FBroken clouds.6 mph69%30.09 "HgN/A
11:00 AM68 °FPartly sunny.8 mph73%30.09 "HgN/A
10:30 AM68 °FMostly cloudy.N/A73%30.09 "HgN/A
10:00 AM68 °FBroken clouds.6 mph83%30.09 "HgN/A
9:30 AM66 °FPartly sunny.7 mph88%30.09 "HgN/A
9:00 AM64 °FMostly cloudy.5 mph94%30.09 "HgN/A
8:30 AM64 °FLow clouds.6 mph94%30.09 "HgN/A
8:00 AM64 °FBroken clouds.5 mph94%30.09 "HgN/A
7:30 AM64 °FPartly cloudy.6 mph94%30.07 "HgN/A
7:00 AM64 °FOvercast.7 mph94%30.07 "HgN/A
6:30 AM64 °FDrizzle. Mostly cloudy.7 mph94%30.07 "HgN/A
6:00 AM64 °FDrizzle. Mostly cloudy.3 mph94%30.07 "Hg4 mi
Weather by CustomWeather, © 2016

See weather overviewHow to use our weather pages